Location: Beneden-Haastrecht
(52.0012°N, 4.7557°E)
Time: 11:12:52
(UTC+00:00)

ADEOS Rocket - Pass Details

Date: 24 October 2020
Orbit: 859 x 1306 km, 98.7° (Epoch: 25 November)

Event Time Altitude Azimuth Distance (km) Brightness Sun altitude
Rises 17:15:50 0° 14° (NNE) 3,630 5.8 -8.1°
Reaches altitude 10° 17:18:11 10° 12° (NNE) 2,732 5.1 -8.4°
Maximum altitude 17:24:18 72° 290° (WNW) 1,105 3.5 -9.4°
Drops below altitude 10° 17:31:05 10° 208° (SSW) 3,021 6.1 -10.4°
Sets 17:33:48 0° 206° (SSW) 4,039 6.7 -10.8°
